Time,TemperatureF,DewpointF,PressureIn,WindDirection,WindDirectionDegrees,WindSpeedMPH,WindSpeedGustMPH,Humidity,HourlyPrecipIn,Conditions,Clouds,dailyrainin,SolarRadiationWatts/m^2,SoftwareType,DateUTC
2013-01-15 00:00:00,73.2,66.0,30.13,ENE,76,0.0,-999.0,77,-99.99,,,0.00,0,weatherlink.com 1.10,2013-01-15 05:00:00,
2013-01-15 00:15:00,73.2,66.0,30.13,ESE,118,0.0,-999.0,77,-99.99,,,0.00,0,weatherlink.com 1.10,2013-01-15 05:15:00,
2013-01-15 00:30:00,73.4,65.0,30.13,East,89,1.0,-999.0,76,-99.99,,,0.00,0,weatherlink.com 1.10,2013-01-15 05:30:00,
2013-01-15 00:45:00,73.4,65.0,30.12,ESE,109,2.0,-999.0,76,-99.99,,,0.00,0,weatherlink.com 1.10,2013-01-15 05:45:00,
2013-01-15 01:00:00,73.4,65.0,30.12,ESE,107,0.0,-999.0,76,-99.99,,,0.00,0,weatherlink.com 1.10,2013-01-15 06:00:00,
2013-01-15 01:15:00,73.4,65.0,30.12,East,98,4.0,-999.0,76,-99.99,,,0.00,0,weatherlink.com 1.10,2013-01-15 06:15:00,
2013-01-15 01:30:00,73.3,65.0,30.11,ESE,117,0.0,-999.0,76,-99.99,,,0.00,0,weatherlink.com 1.10,2013-01-15 06:30:00,
2013-01-15 01:45:00,73.6,66.0,30.11,ESE,122,0.0,-999.0,77,-99.99,,,0.00,0,weatherlink.com 1.10,2013-01-15 06:45:00,
2013-01-15 02:00:00,73.8,67.0,30.11,SE,132,2.0,-999.0,78,-99.99,,,0.00,0,weatherlink.com 1.10,2013-01-15 07:00:00,
2013-01-15 02:15:00,73.7,67.0,30.11,ESE,108,0.0,-999.0,79,-99.99,,,0.00,0,weatherlink.com 1.10,2013-01-15 07:15:00,
2013-01-15 02:30:00,73.4,67.0,30.10,ESE,118,0.0,-999.0,79,-99.99,,,0.00,0,weatherlink.com 1.10,2013-01-15 07:30:00,
2013-01-15 02:45:00,73.1,66.0,30.10,ESE,119,0.0,-999.0,79,-99.99,,,0.00,0,weatherlink.com 1.10,2013-01-15 07:45:00,
2013-01-15 03:00:00,73.2,67.0,30.10,SE,126,1.0,-999.0,80,-99.99,,,0.00,0,weatherlink.com 1.10,2013-01-15 08:00:00,
2013-01-15 03:15:00,73.1,67.0,30.10,SE,126,0.0,-999.0,80,-99.99,,,0.00,0,weatherlink.com 1.10,2013-01-15 08:15:00,
2013-01-15 03:30:00,73.0,67.0,30.09,SE,126,0.0,-999.0,81,-99.99,,,0.00,0,weatherlink.com 1.10,2013-01-15 08:30:00,
2013-01-15 03:45:00,72.9,67.0,30.09,SE,126,1.0,-999.0,81,-99.99,,,0.00,0,weatherlink.com 1.10,2013-01-15 08:45:00,
2013-01-15 04:00:00,72.7,67.0,30.09,East,92,0.0,-999.0,81,-99.99,,,0.00,0,weatherlink.com 1.10,2013-01-15 09:00:00,
2013-01-15 04:15:00,72.8,67.0,30.08,SE,130,0.0,-999.0,81,-99.99,,,0.00,0,weatherlink.com 1.10,2013-01-15 09:15:00,
2013-01-15 04:30:00,72.6,67.0,30.08,SE,125,0.0,-999.0,81,-99.99,,,0.00,0,weatherlink.com 1.10,2013-01-15 09:30:00,
2013-01-15 04:45:00,72.5,66.0,30.08,SE,130,0.0,-999.0,81,-99.99,,,0.00,0,weatherlink.com 1.10,2013-01-15 09:45:00,
2013-01-15 05:00:00,72.2,66.0,30.09,SE,130,0.0,-999.0,81,-99.99,,,0.00,0,weatherlink.com 1.10,2013-01-15 10:00:00,
2013-01-15 05:15:00,72.2,66.0,30.09,SE,130,0.0,-999.0,81,-99.99,,,0.00,0,weatherlink.com 1.10,2013-01-15 10:15:00,
2013-01-15 05:30:00,72.2,66.0,30.09,SE,130,0.0,-999.0,82,-99.99,,,0.00,0,weatherlink.com 1.10,2013-01-15 10:30:00,
2013-01-15 05:45:00,72.2,66.0,30.09,SE,127,0.0,-999.0,82,-99.99,,,0.00,0,weatherlink.com 1.10,2013-01-15 10:45:00,
2013-01-15 06:00:00,72.4,67.0,30.09,SE,134,0.0,-999.0,82,-99.99,,,0.00,0,weatherlink.com 1.10,2013-01-15 11:00:00,
2013-01-15 06:15:00,72.6,67.0,30.09,SE,129,0.0,-999.0,82,-99.99,,,0.00,0,weatherlink.com 1.10,2013-01-15 11:15:00,
2013-01-15 06:31:00,72.9,67.0,30.10,SE,130,0.0,-999.0,81,-99.99,,,0.00,0,weatherlink.com 1.10,2013-01-15 11:31:00,
2013-01-15 06:45:00,73.2,67.0,30.10,ESE,109,0.0,-999.0,81,-99.99,,,0.00,0,weatherlink.com 1.10,2013-01-15 11:45:00,
2013-01-15 07:00:00,73.3,67.0,30.10,SSE,155,0.0,-999.0,80,-99.99,,,0.00,0,weatherlink.com 1.10,2013-01-15 12:00:00,
2013-01-15 07:16:00,73.2,66.0,30.10,ESE,123,6.0,-999.0,79,-99.99,,,0.00,11,weatherlink.com 1.10,2013-01-15 12:16:00,
2013-01-15 07:31:00,73.4,66.0,30.11,ESE,103,0.0,-999.0,78,-99.99,,,0.00,30,weatherlink.com 1.10,2013-01-15 12:31:00,
2013-01-15 07:46:00,73.9,67.0,30.11,East,89,3.0,-999.0,80,-99.99,,,0.00,37,weatherlink.com 1.10,2013-01-15 12:46:00,
2013-01-15 08:01:00,73.9,67.0,30.11,ESE,121,1.0,-999.0,79,-99.99,,,0.00,39,weatherlink.com 1.10,2013-01-15 13:01:00,
2013-01-15 08:16:00,74.5,67.0,30.12,East,84,1.0,-999.0,78,-99.99,,,0.00,83,weatherlink.com 1.10,2013-01-15 13:16:00,
2013-01-15 08:31:00,74.9,68.0,30.12,East,93,1.0,-999.0,79,-99.99,,,0.00,120,weatherlink.com 1.10,2013-01-15 13:31:00,
2013-01-15 08:46:00,75.6,68.0,30.12,East,81,0.0,-999.0,78,-99.99,,,0.00,278,weatherlink.com 1.10,2013-01-15 13:46:00,
2013-01-15 09:01:00,76.5,68.0,30.12,ESE,111,0.0,-999.0,76,-99.99,,,0.00,364,weatherlink.com 1.10,2013-01-15 14:01:00,
2013-01-15 09:16:00,76.5,68.0,30.13,SE,129,0.0,-999.0,76,-99.99,,,0.00,211,weatherlink.com 1.10,2013-01-15 14:16:00,
2013-01-15 09:31:00,76.8,69.0,30.13,SSE,157,0.0,-999.0,76,-99.99,,,0.00,262,weatherlink.com 1.10,2013-01-15 14:31:00,
2013-01-15 09:46:00,76.6,68.0,30.13,SE,140,2.0,-999.0,75,-99.99,,,0.00,278,weatherlink.com 1.10,2013-01-15 14:46:00,
2013-01-15 10:01:00,76.9,68.0,30.13,East,101,0.0,-999.0,75,-99.99,,,0.00,255,weatherlink.com 1.10,2013-01-15 15:01:00,
2013-01-15 10:16:00,77.1,69.0,30.13,SE,130,0.0,-999.0,75,-99.99,,,0.00,274,weatherlink.com 1.10,2013-01-15 15:16:00,
2013-01-15 10:31:00,77.1,68.0,30.13,ESE,115,0.0,-999.0,74,-99.99,,,0.00,274,weatherlink.com 1.10,2013-01-15 15:31:00,
2013-01-15 10:46:00,77.3,68.0,30.12,ESE,108,0.0,-999.0,74,-99.99,,,0.00,362,weatherlink.com 1.10,2013-01-15 15:46:00,
2013-01-15 11:01:00,78.4,69.0,30.11,East,101,7.0,-999.0,73,-99.99,,,0.00,404,weatherlink.com 1.10,2013-01-15 16:01:00,
2013-01-15 11:16:00,78.2,68.0,30.11,ESE,109,2.0,-999.0,72,-99.99,,,0.00,448,weatherlink.com 1.10,2013-01-15 16:16:00,
2013-01-15 11:31:00,78.0,69.0,30.10,ESE,108,1.0,-999.0,73,-99.99,,,0.00,350,weatherlink.com 1.10,2013-01-15 16:31:00,
2013-01-15 11:46:00,77.5,68.0,30.10,ESE,110,5.0,-999.0,73,-99.99,,,0.00,297,weatherlink.com 1.10,2013-01-15 16:46:00,
2013-01-15 12:01:00,77.4,69.0,30.09,East,93,1.0,-999.0,74,-99.99,,,0.00,371,weatherlink.com 1.10,2013-01-15 17:01:00,
2013-01-15 12:16:00,78.0,68.0,30.09,ESE,119,5.0,-999.0,71,-99.99,,,0.00,415,weatherlink.com 1.10,2013-01-15 17:16:00,
2013-01-15 12:31:00,77.8,69.0,30.08,ESE,105,5.0,-999.0,74,-99.99,,,0.00,564,weatherlink.com 1.10,2013-01-15 17:31:00,
2013-01-15 13:01:00,79.1,69.0,30.07,East,96,7.0,-999.0,71,-99.99,,,0.00,455,weatherlink.com 1.10,2013-01-15 18:01:00,
2013-01-15 13:16:00,79.0,68.0,30.07,East,89,0.0,-999.0,70,-99.99,,,0.00,410,weatherlink.com 1.10,2013-01-15 18:16:00,
2013-01-15 13:31:00,78.0,68.0,30.07,ENE,73,4.0,-999.0,71,-99.99,,,0.00,628,weatherlink.com 1.10,2013-01-15 18:31:00,
2013-01-15 13:46:00,78.8,68.0,30.07,ESE,103,2.0,-999.0,69,-99.99,,,0.00,742,weatherlink.com 1.10,2013-01-15 18:46:00,
2013-01-15 14:01:00,79.0,68.0,30.06,East,89,3.0,-999.0,70,-99.99,,,0.00,610,weatherlink.com 1.10,2013-01-15 19:01:00,
2013-01-15 14:16:00,78.8,68.0,30.06,ENE,71,5.0,-999.0,70,-99.99,,,0.00,608,weatherlink.com 1.10,2013-01-15 19:16:00,
2013-01-15 14:31:00,78.2,68.0,30.06,East,86,3.0,-999.0,72,-99.99,,,0.00,568,weatherlink.com 1.10,2013-01-15 19:31:00,
2013-01-15 14:46:00,78.0,68.0,30.06,East,98,5.0,-999.0,72,-99.99,,,0.00,142,weatherlink.com 1.10,2013-01-15 19:46:00,
2013-01-15 15:01:00,77.5,68.0,30.06,ENE,78,3.0,-999.0,72,-99.99,,,0.00,480,weatherlink.com 1.10,2013-01-15 20:01:00,
2013-01-15 15:16:00,77.9,67.0,30.06,ESE,107,1.0,-999.0,70,-99.99,,,0.00,473,weatherlink.com 1.10,2013-01-15 20:16:00,
2013-01-15 15:31:00,77.9,68.0,30.06,SE,138,5.0,-999.0,71,-99.99,,,0.00,408,weatherlink.com 1.10,2013-01-15 20:31:00,
2013-01-15 15:46:00,77.4,68.0,30.06,East,86,3.0,-999.0,72,-99.99,,,0.00,366,weatherlink.com 1.10,2013-01-15 20:46:00,
2013-01-15 16:01:00,77.3,68.0,30.06,ESE,106,5.0,-999.0,72,-99.99,,,0.00,65,weatherlink.com 1.10,2013-01-15 21:01:00,
2013-01-15 16:16:00,76.9,68.0,30.07,ENE,76,3.0,-999.0,73,-99.99,,,0.00,253,weatherlink.com 1.10,2013-01-15 21:16:00,
2013-01-15 16:31:00,76.5,67.0,30.07,East,101,0.0,-999.0,73,-99.99,,,0.00,195,weatherlink.com 1.10,2013-01-15 21:31:00,
2013-01-15 16:47:00,76.3,68.0,30.08,ENE,71,2.0,-999.0,75,-99.99,,,0.00,176,weatherlink.com 1.10,2013-01-15 21:47:00,
2013-01-15 17:01:00,75.8,67.0,30.08,East,88,1.0,-999.0,75,-99.99,,,0.00,100,weatherlink.com 1.10,2013-01-15 22:01:00,
2013-01-15 17:16:00,75.7,67.0,30.08,ESE,120,2.0,-999.0,75,-99.99,,,0.00,28,weatherlink.com 1.10,2013-01-15 22:16:00,
2013-01-15 17:31:00,74.9,67.0,30.09,East,90,0.0,-999.0,76,-99.99,,,0.00,16,weatherlink.com 1.10,2013-01-15 22:31:00,
2013-01-15 17:47:00,74.6,67.0,30.09,ENE,76,2.0,-999.0,76,-99.99,,,0.00,7,weatherlink.com 1.10,2013-01-15 22:47:00,
2013-01-15 18:02:00,74.3,66.0,30.09,East,83,1.0,-999.0,76,-99.99,,,0.00,0,weatherlink.com 1.10,2013-01-15 23:02:00,
2013-01-15 18:17:00,73.9,66.0,30.09,ENE,76,0.0,-999.0,76,-99.99,,,0.00,0,weatherlink.com 1.10,2013-01-15 23:17:00,
2013-01-15 18:32:00,73.8,66.0,30.09,East,81,2.0,-999.0,77,-99.99,,,0.00,0,weatherlink.com 1.10,2013-01-15 23:32:00,
2013-01-15 18:47:00,73.5,66.0,30.09,East,81,2.0,-999.0,77,-99.99,,,0.00,0,weatherlink.com 1.10,2013-01-15 23:47:00,
2013-01-15 19:02:00,73.4,66.0,30.09,East,81,0.0,-999.0,77,-99.99,,,0.00,0,weatherlink.com 1.10,2013-01-16 00:02:00,
2013-01-15 19:17:00,73.2,66.0,30.09,East,81,0.0,-999.0,77,-99.99,,,0.00,0,weatherlink.com 1.10,2013-01-16 00:17:00,
2013-01-15 19:32:00,73.2,65.0,30.08,East,81,2.0,-999.0,76,-99.99,,,0.00,0,weatherlink.com 1.10,2013-01-16 00:32:00,
2013-01-15 19:47:00,73.0,65.0,30.08,East,81,0.0,-999.0,76,-99.99,,,0.00,0,weatherlink.com 1.10,2013-01-16 00:47:00,
2013-01-15 20:02:00,73.0,65.0,30.08,East,81,0.0,-999.0,77,-99.99,,,0.00,0,weatherlink.com 1.10,2013-01-16 01:02:00,
2013-01-15 20:17:00,72.7,65.0,30.08,East,81,1.0,-999.0,77,-99.99,,,0.00,0,weatherlink.com 1.10,2013-01-16 01:17:00,
2013-01-15 20:32:00,72.7,65.0,30.08,East,81,0.0,-999.0,77,-99.99,,,0.00,0,weatherlink.com 1.10,2013-01-16 01:32:00,
2013-01-15 20:47:00,72.6,65.0,30.07,East,81,2.0,-999.0,77,-99.99,,,0.00,0,weatherlink.com 1.10,2013-01-16 01:47:00,
2013-01-15 21:02:00,72.6,64.0,30.07,East,81,0.0,-999.0,75,-99.99,,,0.00,0,weatherlink.com 1.10,2013-01-16 02:02:00,
2013-01-15 21:17:00,72.9,63.0,30.07,East,80,0.0,-999.0,71,-99.99,,,0.00,0,weatherlink.com 1.10,2013-01-16 02:17:00,
2013-01-15 21:32:00,72.7,63.0,30.06,East,87,0.0,-999.0,71,-99.99,,,0.00,0,weatherlink.com 1.10,2013-01-16 02:32:00,
2013-01-15 21:47:00,72.8,63.0,30.06,East,97,0.0,-999.0,72,-99.99,,,0.00,0,weatherlink.com 1.10,2013-01-16 02:47:00,
2013-01-15 22:02:00,73.1,64.0,30.06,East,91,0.0,-999.0,73,-99.99,,,0.00,0,weatherlink.com 1.10,2013-01-16 03:02:00,
2013-01-15 22:17:00,73.1,64.0,30.05,East,89,0.0,-999.0,74,-99.99,,,0.00,0,weatherlink.com 1.10,2013-01-16 03:17:00,
2013-01-15 22:32:00,72.9,65.0,30.05,East,96,0.0,-999.0,75,-99.99,,,0.00,0,weatherlink.com 1.10,2013-01-16 03:32:00,
2013-01-15 22:47:00,72.8,64.0,30.05,East,86,0.0,-999.0,75,-99.99,,,0.00,0,weatherlink.com 1.10,2013-01-16 03:47:00,
2013-01-15 23:02:00,72.5,65.0,30.05,SE,134,0.0,-999.0,77,-99.99,,,0.00,0,weatherlink.com 1.10,2013-01-16 04:02:00,
2013-01-15 23:17:00,72.6,65.0,30.05,East,93,0.0,-999.0,77,-99.99,,,0.00,0,weatherlink.com 1.10,2013-01-16 04:17:00,
2013-01-15 23:32:00,72.3,65.0,30.04,East,93,0.0,-999.0,77,-99.99,,,0.00,0,weatherlink.com 1.10,2013-01-16 04:32:00,
2013-01-15 23:47:00,72.4,65.0,30.04,East,86,0.0,-999.0,78,-99.99,,,0.00,0,weatherlink.com 1.10,2013-01-16 04:47:00,